Regional Weather Roundup
Issued by NWS

Home | Current Version | Previous Version | Graphics & Text | Print | Product List | Glossary On
Versions: 1 2 3 4 5 6 7 8 9 10 11 12 13 14 15 16 17 18 19 20 21 22 23 24 25 26 27 28 29 30 31 32 33 34 35 36 37 38 39 40 41 42 43 44 45 46 47 48 49 50
000
ASUS43 KFSD 191502
RWRSD

WEATHER ROUNDUP FOR SOUTH DAKOTA
NATIONAL WEATHER SERVICE SIOUX FALLS SD
900 AM CST SUN FEB 19 2017

NOTE: "FAIR" INDICATES FEW OR NO CLOUDS BELOW 12,000 FEET WITH NO
SIGNIFICANT WEATHER AND/OR OBSTRUCTIONS TO VISIBILITY.


SDZ001>005-009-010-012>017-191600-
NORTHWEST AND NORTH CENTRAL SOUTH DAKOTA

CITY           SKY/WX    TMP DP  RH WIND       PRES   REMARKS
BUFFALO          N/A     39  32  76 S6        29.45S
FAITH            N/A     41  35  79 S16       29.53S
MOBRIDGE       CLOUDY    39  32  76 SE10      29.55F
$$

SDZ012>016-024>037-041>051-057-063-072>074-191600-
SOUTHWEST AND SOUTH CENTRAL SOUTH DAKOTA

CITY           SKY/WX    TMP DP  RH WIND       PRES   REMARKS
RAPID CTY ARPT MOSUNNY   37  30  75 CALM      29.55F
PIERRE         CLOUDY    42  34  73 SE13      29.59F
CUSTER         CLOUDY    46  26  45 W9G23     29.61R
ELLSWORTH AFB  CLOUDY    39  31  71 CALM      29.54F
PHILIP         SUNNY     40  35  83 E6        29.55F
PINE RIDGE     SUNNY     41  33  73 SW5       29.62R
SPEARFISH      FAIR      52  30  43 VRB3      29.53S
WINNER         FAIR      50  37  61 S10       29.63F
$$

SDZ004>011-016>023-039-040-191600-
NORTHEAST SOUTH DAKOTA

CITY           SKY/WX    TMP DP  RH WIND       PRES   REMARKS
ABERDEEN       CLOUDY    41  34  76 S8        29.69F
WATERTOWN      CLOUDY    41  35  79 SE9       29.73F
BROOKINGS      MOSUNNY   42  36  79 SE17      29.76F
SISSETON         N/A     36  36 100 S9        29.75F
$$

SDZ017-020-022-023-036>040-048>070-191600-
SOUTHEAST SOUTH DAKOTA

CITY           SKY/WX    TMP DP  RH WIND       PRES   REMARKS
SIOUX FALLS    CLOUDY    46  38  73 SE9       29.79F
HURON          MOSUNNY   43  36  76 SE13      29.70S
CHAMBERLAIN    CLOUDY    40  37  87 E5        29.66S
MITCHELL       MOSUNNY   42  36  79 SE14      29.72R
YANKTON        SUNNY     43  36  75 E9        29.76S
$$

ABBREVIATIONS USED IN REMARKS
   TC - TEMPERATURE IN CELSIUS
  WCI - WIND CHILL INDEX
   HX - HEAT INDEX
  VSB - VISIBILITY




USA.gov is the U.S. government's official web portal to all federal, state and local government web resources and services.